Haines, AK

3:53 PM AKDT on August 30, 2016 (GMT -0800)
Haines

Weather History for PAHN - December, 2012

Change the Weather History Date:

Monday, December 3, 2012

  Actual Average Record
Temperature  
Mean Temperature 8 °F -  
Max Temperature 10 °F 31 °F 45 °F (1989)
Min Temperature 7 °F 24 °F -8 °F (1990)
Degree Days  
Heating Degree Days 56    
Moisture  
Dew Point 3 °F    
Average Humidity 74    
Maximum Humidity 80    
Minimum Humidity 58    
Precipitation  
Precipitation 0.00 in - - ()
Sea Level Pressure  
Sea Level Pressure 29.65 in    
Wind  
Wind Speed 11 mph (NW)    
Max Wind Speed 17 mph    
Max Gust Speed 30 mph    
Visibility 4 miles    
Events Snow    
Averages and records for this station are not official NWS values.
T = Trace of Precipitation, MM = Missing Value Source: NWS Daily Summary

Daily Weather History Graph

Daily Weather History Graph

Search for Another Location

Airport or City:

Trip Planner

Search our weather history database for the weather conditions in past years. The results will help you decide how hot, cold, wet, or windy it might be!

Date:

Astronomy

Dec. 03, 2012 Rise Set
Actual Time 8:36 AM AKST 3:07 PM AKST
Civil Twilight 7:43 AM AKST 4:00 PM AKST
Nautical Twilight 6:49 AM AKST 4:54 PM AKST
Astronomical Twilight 5:59 AM AKST 5:44 PM AKST
Moon 8:48 PM AKST (12/3) 11:22 AM AKST (12/3)
Length of Visible Light 8h 17m
Length of Day
6h 31m
Waning Gibbous, 77% of the Moon is Illuminated
Dec 3
Waning Gibbous
Dec 6
Last Quarter
Dec 12
New
Dec 19
First Quarter
Dec 28
Full

Hourly Weather History & Observations

Time (AKST) Temp. Windchill Dew Point Humidity Pressure Visibility Wind Dir Wind Speed Gust Speed Precip Events Conditions
12:54 AM 10.9 °F -3.4 °F 5.0 °F 77% 29.56 in 3.0 mi NW 11.5 mph 18.4 mph 0.00 in Snow Light Snow
1:00 AM 10.4 °F -4.1 °F 5.0 °F 79% 29.55 in 2.5 mi NW 11.5 mph 19.6 mph 0.00 in Snow Light Snow
1:14 AM 10.4 °F -3.3 °F 5.0 °F 79% 29.55 in 4.0 mi NW 10.4 mph 17.3 mph 0.00 in Snow Light Snow
1:54 AM 10.9 °F -4.1 °F 5.0 °F 77% 29.57 in 2.0 mi NW 12.7 mph 18.4 mph 0.00 in Snow Light Snow
2:22 AM 10.4 °F -4.1 °F 5.0 °F 79% 29.57 in 3.0 mi NW 11.5 mph 18.4 mph 0.00 in Snow Light Snow
2:30 AM 10.4 °F -4.1 °F 5.0 °F 79% 29.57 in 2.0 mi NW 11.5 mph 19.6 mph 0.00 in Snow Light Snow
2:40 AM 10.4 °F -4.8 °F 5.0 °F 79% 29.57 in 1.8 mi NW 12.7 mph 19.6 mph 0.00 in Snow Light Snow
2:54 AM 10.9 °F -4.7 °F 5.0 °F 77% 29.58 in 3.0 mi NW 13.8 mph 19.6 mph 0.00 in Snow Light Snow
3:38 AM 10.4 °F -4.8 °F 5.0 °F 79% 29.57 in 2.5 mi NW 12.7 mph 19.6 mph 0.00 in Snow Light Snow
3:54 AM 10.9 °F -2.6 °F 5.0 °F 77% 29.59 in 2.5 mi NNW 10.4 mph - 0.00 in Snow Light Snow
4:06 AM 10.4 °F -4.8 °F 5.0 °F 79% 29.58 in 1.5 mi NNW 12.7 mph 19.6 mph 0.00 in Snow Light Snow
4:36 AM 10.4 °F -6.0 °F 5.0 °F 79% 29.59 in 2.0 mi NW 15.0 mph 19.6 mph 0.00 in Snow Light Snow
4:46 AM 10.4 °F -3.3 °F 5.0 °F 79% 29.59 in 1.8 mi NW 10.4 mph 20.7 mph 0.00 in Snow Light Snow
4:54 AM 10.9 °F -2.6 °F 5.0 °F 77% 29.60 in 1.2 mi NW 10.4 mph 17.3 mph 0.00 in Snow Light Snow
6:01 AM 10.4 °F -3.3 °F 5.0 °F 79% 29.60 in 2.5 mi NW 10.4 mph 18.4 mph 0.00 in Snow Light Snow
6:19 AM 10.4 °F -4.1 °F 3.2 °F 73% 29.60 in 1.8 mi NW 11.5 mph 20.7 mph 0.00 in Snow Light Snow
6:26 AM 10.4 °F 0.8 °F 5.0 °F 79% 29.61 in 2.0 mi Variable 5.8 mph 17.3 mph 0.00 in Snow Light Snow
6:54 AM 10.0 °F -5.2 °F 5.0 °F 80% 29.62 in 1.2 mi NW 12.7 mph 18.4 mph 0.00 in Snow Light Snow
7:26 AM 10.4 °F 0.8 °F 5.0 °F 79% 29.62 in 2.0 mi Variable 5.8 mph - 0.00 in Snow Light Snow
7:39 AM 10.4 °F -3.3 °F 3.2 °F 73% 29.63 in 2.5 mi NW 10.4 mph 19.6 mph 0.00 in Snow Light Snow
7:46 AM 10.4 °F -1.5 °F 3.2 °F 73% 29.63 in 4.0 mi NW 8.1 mph 20.7 mph 0.00 in Snow Light Snow
7:54 AM 10.0 °F -1.9 °F 3.9 °F 76% 29.64 in 6.0 mi NW 8.1 mph 19.6 mph 0.00 in Snow Light Snow
8:54 AM 10.0 °F 0.4 °F 3.0 °F 73% 29.66 in 8.0 mi NW 5.8 mph - 0.00 in Snow Light Snow
9:54 AM 10.0 °F -0.9 °F 1.9 °F 70% 29.68 in 8.0 mi NW 6.9 mph - 0.00 in Snow Light Snow
10:54 AM 10.0 °F -3.7 °F 3.0 °F 73% 29.69 in 4.0 mi WNW 10.4 mph 18.4 mph 0.00 in Snow Light Snow
11:36 AM 10.4 °F -4.1 °F 3.2 °F 73% 29.69 in 2.5 mi NW 11.5 mph 18.4 mph 0.00 in Snow Light Snow
11:45 AM 10.4 °F -5.4 °F 3.2 °F 73% 29.70 in 4.0 mi WNW 13.8 mph 19.6 mph 0.00 in Snow Light Snow
11:54 AM 10.0 °F -4.5 °F 3.9 °F 76% 29.71 in 3.0 mi WNW 11.5 mph - 0.00 in Snow Light Snow
12:02 PM 10.4 °F -3.3 °F 3.2 °F 73% 29.70 in 2.0 mi NW 10.4 mph 18.4 mph 0.00 in Snow Light Snow
12:49 PM 10.4 °F -3.3 °F 3.2 °F 73% 29.71 in 1.8 mi NW 10.4 mph 19.6 mph 0.00 in Snow Light Snow
12:54 PM 10.0 °F -4.5 °F 5.0 °F 80% 29.72 in 1.8 mi WNW 11.5 mph 19.6 mph 0.00 in Snow Light Snow
1:34 PM 10.4 °F -5.4 °F 3.2 °F 73% 29.71 in 2.5 mi WNW 13.8 mph 19.6 mph 0.00 in Snow Light Snow
1:41 PM 10.4 °F -2.4 °F 3.2 °F 73% 29.72 in 3.0 mi NW 9.2 mph 19.6 mph 0.00 in Snow Light Snow
1:54 PM 10.0 °F -4.5 °F 3.9 °F 76% 29.73 in 2.5 mi WNW 11.5 mph 21.9 mph 0.00 in Snow Light Snow
2:04 PM 10.4 °F -4.8 °F 3.2 °F 73% 29.72 in 3.0 mi WNW 12.7 mph 17.3 mph 0.00 in Snow Light Snow
2:11 PM 10.4 °F -4.1 °F 3.2 °F 73% 29.72 in 2.0 mi WNW 11.5 mph - 0.00 in Snow Light Snow
2:19 PM 10.4 °F -2.4 °F 3.2 °F 73% 29.71 in 1.5 mi WNW 9.2 mph - 0.00 in Snow Light Snow
2:29 PM 10.4 °F -2.4 °F 3.2 °F 73% 29.72 in 3.0 mi NW 9.2 mph 19.6 mph 0.00 in Snow Light Snow
2:52 PM 10.4 °F -4.8 °F 3.2 °F 73% 29.71 in 4.0 mi WNW 12.7 mph 19.6 mph 0.00 in Snow Light Snow
2:54 PM 10.0 °F -3.7 °F 3.9 °F 76% 29.72 in 5.0 mi WNW 10.4 mph 19.6 mph 0.00 in Snow Light Snow
3:54 PM 10.0 °F -5.9 °F 1.9 °F 70% 29.71 in 4.0 mi WNW 13.8 mph 29.9 mph 0.00 in Snow Light Snow
4:54 PM 9.0 °F -5.1 °F 1.9 °F 73% 29.72 in 3.0 mi WNW 10.4 mph 25.3 mph 0.00 in Snow Light Snow
5:54 PM 9.0 °F -7.9 °F -0.0 °F 67% 29.71 in 4.0 mi WNW 15.0 mph 24.2 mph 0.00 in Snow Light Snow
6:11 PM 8.6 °F -7.0 °F 1.4 °F 73% 29.70 in 3.0 mi NW 12.7 mph 26.5 mph 0.00 in Snow Light Snow
6:28 PM 8.6 °F -8.3 °F -0.4 °F 67% 29.69 in 2.5 mi WNW 15.0 mph 24.2 mph 0.00 in Snow Light Snow
6:41 PM 8.6 °F -7.7 °F -0.4 °F 67% 29.70 in 3.0 mi NW 13.8 mph 23.0 mph 0.00 in Snow Light Snow
6:54 PM 8.1 °F -8.4 °F 1.0 °F 73% 29.70 in 3.0 mi WNW 13.8 mph 21.9 mph 0.00 in Snow Light Snow
7:54 PM 8.1 °F -7.7 °F 1.0 °F 73% 29.69 in 5.0 mi NW 12.7 mph 21.9 mph 0.00 in Snow Light Snow
8:54 PM 8.1 °F -7.7 °F -0.0 °F 70% 29.66 in 8.0 mi NW 12.7 mph 27.6 mph 0.00 in Snow Light Snow
9:54 PM 7.0 °F -11.0 °F -2.9 °F 64% 29.65 in 10.0 mi NW 16.1 mph 26.5 mph 0.00 in   Mostly Cloudy
10:54 PM 7.0 °F -11.6 °F -4.0 °F 61% 29.62 in 10.0 mi NW 17.3 mph 26.5 mph 0.00 in   Clear
11:54 PM 7.0 °F -11.6 °F -5.1 °F 58% 29.59 in 10.0 mi NW 17.3 mph 25.3 mph N/A   Overcast